TimeEDT,TemperatureF,Dew PointF,Humidity,Sea Level PressureIn,VisibilityMPH,Wind Direction,Wind SpeedMPH,Gust SpeedMPH,PrecipitationIn,Events,Conditions,WindDirDegrees,DateUTC
12:51 AM,66.2,64.4,94,29.81,9.0,West,4.6,-,N/A,,Mostly Cloudy,260,2013-07-24 04:51:00
12:53 AM,66.0,64.9,96,29.80,9.0,West,4.6,-,N/A,,Mostly Cloudy,260,2013-07-24 04:53:00
1:10 AM,66.2,64.4,94,29.82,9.0,West,5.8,-,N/A,,Overcast,260,2013-07-24 05:10:00
1:41 AM,66.2,64.4,94,29.81,9.0,NW,4.6,-,N/A,,Overcast,320,2013-07-24 05:41:00
1:53 AM,66.0,64.9,96,29.79,9.0,NW,5.8,-,N/A,,Overcast,320,2013-07-24 05:53:00
2:21 AM,66.2,64.4,94,29.81,10.0,NNW,5.8,-,N/A,,Mostly Cloudy,340,2013-07-24 06:21:00
2:28 AM,66.2,64.4,94,29.81,10.0,NNW,5.8,-,N/A,,Mostly Cloudy,330,2013-07-24 06:28:00
2:38 AM,66.2,64.4,94,29.81,10.0,North,8.1,-,N/A,,Mostly Cloudy,350,2013-07-24 06:38:00
2:53 AM,66.0,64.0,93,29.79,10.0,North,5.8,-,N/A,,Overcast,360,2013-07-24 06:53:00
3:34 AM,66.2,64.4,94,29.81,10.0,NNW,5.8,-,N/A,,Overcast,340,2013-07-24 07:34:00
3:53 AM,64.9,63.0,93,29.78,10.0,North,6.9,-,N/A,,Overcast,350,2013-07-24 07:53:00
4:06 AM,64.4,62.6,94,29.80,10.0,North,6.9,-,N/A,,Overcast,350,2013-07-24 08:06:00
4:27 AM,64.4,62.6,94,29.81,10.0,North,6.9,-,N/A,,Overcast,360,2013-07-24 08:27:00
4:53 AM,64.0,61.0,90,29.81,10.0,NNE,6.9,-,N/A,,Mostly Cloudy,20,2013-07-24 08:53:00
5:53 AM,62.1,57.0,84,29.83,10.0,NNE,12.7,18.4,N/A,,Mostly Cloudy,20,2013-07-24 09:53:00
6:53 AM,61.0,55.9,83,29.86,10.0,North,4.6,-,N/A,,Overcast,10,2013-07-24 10:53:00
7:53 AM,61.0,55.9,83,29.90,10.0,North,5.8,-,N/A,,Overcast,10,2013-07-24 11:53:00
8:53 AM,62.1,55.9,80,29.92,10.0,North,6.9,-,N/A,,Scattered Clouds,360,2013-07-24 12:53:00
9:35 AM,62.6,55.4,77,29.93,10.0,North,6.9,-,N/A,,Mostly Cloudy,350,2013-07-24 13:35:00
9:45 AM,62.6,55.4,77,29.93,10.0,North,6.9,-,N/A,,Scattered Clouds,360,2013-07-24 13:45:00
9:53 AM,64.9,57.0,75,29.93,10.0,NNW,5.8,-,N/A,,Scattered Clouds,340,2013-07-24 13:53:00
10:53 AM,64.9,55.0,70,29.94,10.0,North,8.1,-,N/A,,Overcast,350,2013-07-24 14:53:00
11:53 AM,66.0,53.1,63,29.95,10.0,North,9.2,-,N/A,,Overcast,350,2013-07-24 15:53:00
12:53 PM,66.0,52.0,60,29.96,10.0,North,8.1,-,N/A,,Overcast,350,2013-07-24 16:53:00
1:53 PM,68.0,54.0,61,29.95,10.0,NE,10.4,-,N/A,,Overcast,40,2013-07-24 17:53:00
2:53 PM,69.1,53.1,57,29.94,10.0,NNW,9.2,-,N/A,,Mostly Cloudy,340,2013-07-24 18:53:00
3:53 PM,70.0,53.1,55,29.96,10.0,North,9.2,-,N/A,,Mostly Cloudy,360,2013-07-24 19:53:00
4:53 PM,68.0,52.0,56,29.96,10.0,NNE,5.8,-,N/A,,Mostly Cloudy,20,2013-07-24 20:53:00
5:53 PM,70.0,53.1,55,29.96,10.0,Variable,5.8,-,N/A,,Clear,0,2013-07-24 21:53:00
6:53 PM,66.9,53.1,61,29.96,10.0,North,3.5,-,N/A,,Partly Cloudy,350,2013-07-24 22:53:00
7:53 PM,66.9,54.0,63,29.96,10.0,North,4.6,-,N/A,,Clear,350,2013-07-24 23:53:00
8:53 PM,63.0,52.0,67,29.99,10.0,North,5.8,-,N/A,,Clear,360,2013-07-25 00:53:00
9:53 PM,62.1,52.0,70,29.99,10.0,North,5.8,-,N/A,,Clear,10,2013-07-25 01:53:00
10:53 PM,61.0,52.0,72,30.00,10.0,NNE,8.1,-,N/A,,Clear,30,2013-07-25 02:53:00
11:53 PM,59.0,52.0,78,30.01,10.0,NNE,5.8,-,N/A,,Clear,20,2013-07-25 03:53:00